User: anonymous   Login
Location: Unspecified
(0.0000°N, 0.0000°E)
Time: 00:38:46
(UTC+00:00)
Language:

Kosmos-2180 - Orbit

View from above orbital plane
View from above orbital plane
View from above satellite
View from above satellite

Ground track
Ground track

The orbit data is extracted from the following two-line orbital elements,

1 21875U 92008A   17206.32790391 +.00000041 +00000-0 +27934-4 0  9996
2 21875 082.9278 108.6556 0038052 014.6775 124.4056 13.73721397274749
Epoch (UTC): 25 July 2017 07:52:10
Eccentricity: 0.0038052
inclination: 82.9278°
perigee height: 958 km
apogee height: 1014 km
right ascension of ascending node: 108.6556°
argument of perigee: 14.6775°
revolutions per day: 13.73721397
mean anomaly at epoch: 124.4056°
orbit number at epoch: 27474

The dashed part of the orbit path shows where the satellite is in the earth's shadow,  

DLR